Showing default

GALILEO 10 (206), 40890

Orbit data source: Space-Track

GALILEO 10 (206), 40890 is a payload satellite owned by GNSS Agency (ESA) that was launched on Fri, 11 Sep 2015 UTC via a SOYUZ-ST-B launch vehicle from the French Guiana (FRGUI). Payload-class satellites include a variety of spacecraft equipped with specific instruments for various scientific and technological missions. These include communications satellites like Starlink; space stations such as the ISS; scientific satellites like the Hubble; Earth observation satellites from companies like Planet Labs, Umbra, and HawkEye 360; GPS; miniature CubeSats for education and research; and military/defense satellites.

Loading next visibility...
Identifier
40890, 2015-045B
Orbit
Active
Country
Flag of ESAESA
Related business
Manufacturer
OHB
Mission
Operational Civil Navigation
Bus & Motor
GALILEOSAT, AOCS
Mass
733 kg wet, 660 kg dry
Launch date (UTC)
2015-09-11 (10 years ago)
Launch vehicle
SOYUZ-ST-B
Launch site
French Guiana (FRGUI)
Object type
Payload
Rocket body
Debris
Shape & HBR
Box + 2 Pan, 7.3 m
Radar Cross Section
9.223 m², Large (>1 m²)

Expand to show TLE details & history
Last TLE update: 2 days ago

TLE from 2 days ago
0 GALILEO 10 (206)
1 40890U 15045B   26036.47591748  .00000050  00000-0  00000-0 0  9993
2 40890  54.9874 225.2385 0004260  48.8489 311.1809  1.70473585 64799
Epoch: 2026-02-05T11:25Z
TLE epoch observation values (Epoch: 2026-02-05T11:25:19.270Z)
Latitude
-0°
Longitude
-81.71286°
Altitude
23,214.191 km
Speed
3.671 km/s
True Right ascension
15h 00m 58s
True Declination
0° 00' 00"
Sunlit
Object was in daylight at epoch
Visualization orbit readout
Latitude
Unknown
Longitude
Unknown
Altitude
Unknown
Speed
Unknown
Apparent Right ascension
Unknown
Apparent Declination
Unknown
Sunlit
N/A
Visualization observer readout
Local Sidereal Time
06:53:21
Azimuth
Unknown
Elevation
Unknown
Doppler factor
Unknown
Orbital elements
Apogee altitude
23,234.85 km
Perigee altitude
23,209.63 km
Semi-major axis
29,600.377 km
Eccentricity
0.00043
Inclination
54.9874°
RAAN
225.2385°
Arg. of periapsis
48.8489°
True anomaly
311.14415°
Mean anomaly
311.1809°
Eccentric anomaly
311.16252°
Mean motion
0.42618 °/min
Orbital period
844.71 mins
BSTAR
0
Loading maneuver chart data...
Computing Atmospheric mass density...
Loading historical data...
Loading historical data...
Loading historical data...
Loading historical data...
Loading historical data...
Loading historical data...
Loading historical data...
Other satellites on launch #45 in the year 2015 (2015-09-11 UTC)

Documentation

Showing up to 5 results
|